Tracking 31027 objects as of 19-Jul-2025
HD Live streaming from Space Station
objects crossing your sky now

COSMOS 1691 DEB

Track COSMOS 1691 DEB now!
10-day predictions


NORAD ID: 43316
Int'l Code: 1985-094AA
Perigee: 1,377.9 km
Apogee: 1,391.9 km
Inclination: 82.6 °
Period: 113.3 minutes
Semi major axis: 7755 km
RCS: Unknown
Launch date: October 9, 1985
Source: Commonwealth of Independent States (former USSR) (CIS)
Launch site: PLESETSK MISSILE AND SPACE COMPLEX (PKMTR)

Note: This is SATELLITE DEBRIS
Your satellite tracking list
MANDRAKE 2 ABLE
Track 1 satellite(s)




NASA's NSSDC Master Catalog

Two Line Element Set (TLE):
1 43316U 85094AA  25193.91609759  .00000360  00000-0  17362-2 0  9999
2 43316  82.6013  63.8846 0008995  70.5612 289.6455 12.71026599 32451
Source of the keplerian elements: AFSPC